Regional Weather Roundup
Issued by NWS

Home | Current Version | Previous Version | Text Only | Print | Product List | Glossary Off
Versions: 1 2 3 4 5 6 7 8 9 10 11 12 13 14 15 16 17 18 19 20 21 22 23 24 25 26 27 28 29 30 31 32 33 34 35 36 37 38 39 40 41 42 43 44 45 46 47 48 49 50

000
ASUS43 KIND 311909
RWRIN

WEATHER ROUNDUP FOR INDIANA
NATIONAL WEATHER SERVICE INDIANAPOLIS IN
300 PM EDT WED AUG 31 2016

NOTE: "FAIR" INDICATES FEW OR NO CLOUDS BELOW 12,000 FEET WITH NO
SIGNIFICANT WEATHER AND/OR OBSTRUCTIONS TO VISIBILITY.

* - STATION DOES NOT REPORT WEATHER SUCH AS PRECIPITATION OR FOG.

+ - STATION NOT QUALITY CONTROLLED BY THE NATIONAL WEATHER SERVICE.
    USE DATA WITH CAUTION...ESPECIALLY DEWPOINT AND RELATIVE
    HUMIDITY OBSERVATIONS.

INZ001>003-010>013-019-020-312000-
NORTHWEST INDIANA

CITY           SKY/WX    TMP DP  RH WIND       PRES   REMARKS
GARY /AIRPORT/ PTSUNNY   75  63  64 N9G26     30.08R
KNOX *+        MOSUNNY   77  46  33 N17       30.02R
LA PORTE +     PTSUNNY   76  68  76 N17G23    30.05R
MICHIGAN CITY+ PTSUNNY   73  63  68 CALM      30.06R
MONTICELLO +   MOSUNNY   83  66  56 NW8       29.99F
RENSSELAER +   MOSUNNY   81  68  65 N12       30.03S
VALPARAISO     PTSUNNY   74  65  73 N14G22    30.05S

$$

LMZ046-743>745-312000-
SOUTHERN LAKE MICHIGAN

STATION/POSITION TIME  TEMP    WIND        PRES    WAVE
                       AIR SEA DIR/SP/G            HT
                 (UTC) (F)     (DEG/KT/KT) (MB)    (FT)
BURNS HARBOR     1807   72     360/ 14/ 17 1018.3R
MICHIGAN CITY    1800   71     340/ 17/ 19   N/A
5NW MICH CITY    1800   72 70  360/ 16/ 19   N/A     5

$$

INZ004-005-014>016-021>024-312000-
NORTH CENTRAL INDIANA

CITY           SKY/WX    TMP DP  RH WIND       PRES   REMARKS
ELKHART        PTSUNNY  N/A N/A N/A CALM      30.00S
GOSHEN         CLOUDY    80  66  62 VRB7      29.98F
LOGANSPORT +   PTSUNNY   82  68  61 N6        29.99F
PERU/GRISSOM   MOSUNNY   83  69  63 NW7       29.98F
ROCHESTER +    LGT RAIN  73  72  94 NW10      30.01R
SOUTH BEND     PTSUNNY   78  68  71 NW14G22   30.02R
WARSAW +       MOSUNNY   81  70  69 CALM      29.99F

$$

INZ006>009-017-018-025>027-312000-
NORTHEAST INDIANA

CITY           SKY/WX    TMP DP  RH WIND       PRES   REMARKS
ANGOLA *+      PTSUNNY   81  72  74 N3        29.98F
AUBURN +       MOSUNNY   82  64  54 W5        29.99F
FORT WAYNE     CLOUDY    82  68  62 NW7       29.99F
HUNTINGTON +   CLOUDY    81  71  71 NW6       29.99F

$$

INZ028-029-035-036-043>045-051>053-312000-
WEST CENTRAL INDIANA

CITY           SKY/WX    TMP DP  RH WIND       PRES   REMARKS
CRAWFORDSVL +  MOSUNNY   80  70  70 NW7       30.01S
GREENCASTLE +  MOSUNNY   82  73  74 NW9       30.00F
LAFAYETTE      MOSUNNY   81  70  69 VRB6      29.99F
TERRE HAUTE    MOSUNNY   84  70  62 NW7       29.99F

$$

INZ030>032-037>040-046>048-054>057-064-065-312000-
CENTRAL INDIANA

CITY           SKY/WX    TMP DP  RH WIND       PRES   REMARKS
COLUMBUS       MOSUNNY   84  72  65 W8        29.98S
INDIANAPOLIS   PTSUNNY   84  69  60 NW15      29.98F
-EAGLE CREEK   MOSUNNY   85  69  58 N9        29.98F
KOKOMO *+      PTSUNNY   82  72  69 N6        29.99F
MARION +       CLOUDY    78  69  73 CALM      30.00F
MT COMFORT *+  MOSUNNY   82  70  65 N9        29.99F
SHELBYVILLE    PTSUNNY   83  70  64 NW9       29.97F
ZIONSVILLE +   PTSUNNY   82  72  73 N7        30.01F

$$

INZ033-034-041-042-049-050-058-059-312000-
EAST CENTRAL INDIANA

CITY           SKY/WX    TMP DP  RH WIND       PRES   REMARKS
MUNCIE         PTSUNNY   81  71  71 N8        30.00S

$$

INZ060-061-067>069-081>083-085>088-312000-
SOUTHWEST INDIANA

CITY           SKY/WX    TMP DP  RH WIND       PRES   REMARKS
EVANSVILLE     MOSUNNY   85  69  58 NW7       29.98F
HUNTINGBURG *+ MOSUNNY   88  72  58 NW7       29.98F
WASHINGTON +   PTSUNNY   84  73  69 MISG      29.97F

$$

INZ062-063-066-070>080-084-089>092-312000-
SOUTH CENTRAL AND SOUTHEAST INDIANA

CITY           SKY/WX    TMP DP  RH WIND       PRES   REMARKS
BLOOMINGTON    MOSUNNY   85  71  63 VRB5      29.98F
MADISON *+     MOSUNNY   86  68  54 NW5       30.00F

$$





USA.gov is the U.S. government's official web portal to all federal, state and local government web resources and services.